Lorain / Elyria, OH

2:49 PM EDT on September 24, 2017 (GMT -0400)
Lorain County Regional

Weather History for KLPR - January, 2014

Change the Weather History Date:

Thursday, January 16, 2014

  Actual Average (KCLE) Record (KCLE)
Temperature  
Mean Temperature 26 °F -  
Max Temperature 30 °F 31 °F 57 °F (1949)
Min Temperature 21 °F 15 °F -15 °F (1977)
Degree Days  
Heating Degree Days 40    
Moisture  
Dew Point 19 °F    
Average Humidity 73    
Maximum Humidity 86    
Minimum Humidity 51    
Precipitation  
Precipitation 0.00 in - - ()
Sea Level Pressure  
Sea Level Pressure 29.82 in    
Wind  
Wind Speed 14 mph (SSW)    
Max Wind Speed 20 mph    
Max Gust Speed 28 mph    
Visibility 5 miles    
Events Snow    
Averages and records for this station are not official NWS values.
T = Trace of Precipitation, MM = Missing Value Source: NWS Daily Summary

Daily Weather History Graph

Daily Weather History Graph

Search for Another Location

Airport or City:

Trip Planner

Search our weather history database for the weather conditions in past years. The results will help you decide how hot, cold, wet, or windy it might be!

Date:

Astronomy

Jan. 16, 2014 Rise Set
Actual Time 7:51 AM EST 5:25 PM EST
Civil Twilight 7:21 AM EST 5:55 PM EST
Nautical Twilight 6:47 AM EST 6:29 PM EST
Astronomical Twilight 6:14 AM EST 7:03 PM EST
Moon 6:17 PM EST (1/16) 7:43 AM EST (1/16)
Length of Visible Light 10h 34m
Length of Day
9h 33m
Full, 100% of the Moon is Illuminated
Jan 16
Full
Jan 24
Last Quarter
Jan 30
New
Feb 6
First Quarter
Feb 14
Full

Hourly Weather History & Observations

Time (EST) Temp. Windchill Dew Point Humidity Pressure Visibility Wind Dir Wind Speed Gust Speed Precip Events Conditions
12:05 AM 26.6 °F 16.8 °F 17.6 °F 69% 29.99 in 10.0 mi West 10.4 mph - N/A   Overcast
12:53 AM 25.0 °F 13.6 °F 14.0 °F 63% 30.02 in 10.0 mi West 12.7 mph - N/A   Overcast
1:37 AM 24.8 °F 12.4 °F 15.8 °F 69% 29.96 in 8.0 mi WSW 15.0 mph - 0.00 in Snow Light Snow
1:53 AM 25.0 °F 12.6 °F 14.0 °F 63% 29.99 in 9.0 mi WSW 15.0 mph 18.4 mph 0.00 in   Overcast
2:00 AM 24.8 °F 12.4 °F 12.2 °F 59% 29.96 in 10.0 mi WSW 15.0 mph - N/A   Overcast
2:39 AM 24.8 °F 13.4 °F 12.2 °F 59% 29.95 in 10.0 mi SW 12.7 mph - N/A   Overcast
2:53 AM 24.1 °F 12.5 °F 14.0 °F 65% 29.97 in 10.0 mi SW 12.7 mph - N/A   Overcast
3:24 AM 23.0 °F 9.2 °F 12.2 °F 63% 29.95 in 10.0 mi SW 17.3 mph - N/A   Partly Cloudy
3:53 AM 21.9 °F 10.4 °F 12.0 °F 66% 29.98 in 10.0 mi WSW 11.5 mph - N/A   Scattered Clouds
4:53 AM 21.0 °F 11.4 °F 12.0 °F 68% 29.96 in 10.0 mi SW 8.1 mph - N/A   Clear
5:53 AM 21.0 °F 9.3 °F 10.9 °F 65% 29.96 in 10.0 mi SW 11.5 mph - N/A   Clear
6:27 AM 21.2 °F 10.1 °F 12.2 °F 68% 29.92 in 10.0 mi SW 10.4 mph - N/A   Mostly Cloudy
6:53 AM 21.0 °F 7.1 °F 12.0 °F 68% 29.93 in 10.0 mi SSW 16.1 mph 25.3 mph N/A   Mostly Cloudy
7:13 AM 21.2 °F 7.8 °F 12.2 °F 68% 29.90 in 10.0 mi SW 15.0 mph - N/A   Scattered Clouds
7:53 AM 21.0 °F 9.9 °F 12.9 °F 71% 29.94 in 10.0 mi SW 10.4 mph - N/A   Scattered Clouds
8:53 AM 23.0 °F 10.6 °F 14.0 °F 68% 29.93 in 10.0 mi SSW 13.8 mph 21.9 mph N/A   Overcast
9:53 AM 25.0 °F 13.1 °F 14.0 °F 63% 29.92 in 10.0 mi SSW 13.8 mph 25.3 mph N/A   Overcast
10:53 AM 26.1 °F 12.7 °F 14.0 °F 60% 29.89 in 10.0 mi South 18.4 mph 25.3 mph N/A   Overcast
11:53 AM 28.0 °F 16.1 °F 14.0 °F 56% 29.86 in 10.0 mi South 16.1 mph 26.5 mph N/A   Mostly Cloudy
12:53 PM 28.9 °F 18.6 °F 12.9 °F 51% 29.83 in 10.0 mi SSW 12.7 mph 27.6 mph N/A   Overcast
1:53 PM 30.0 °F 19.5 °F 14.0 °F 51% 29.80 in 10.0 mi SSW 13.8 mph - N/A   Overcast
2:22 PM 28.4 °F 16.6 °F 17.6 °F 64% 29.77 in 2.5 mi SW 16.1 mph 23.0 mph 0.00 in Snow Light Snow
2:34 PM 28.4 °F 15.8 °F 19.4 °F 69% 29.77 in 1.0 mi SSW 18.4 mph 27.6 mph 0.00 in Snow Light Snow
2:42 PM 26.6 °F 14.7 °F 19.4 °F 74% 29.77 in 0.8 mi SSW 15.0 mph - 0.00 in Snow Light Snow
2:53 PM 27.0 °F 16.1 °F 21.0 °F 78% 29.79 in 1.0 mi SSW 12.7 mph - 0.00 in Snow Light Snow
3:23 PM 26.6 °F 14.7 °F 21.2 °F 80% 29.75 in 0.8 mi South 15.0 mph 23.0 mph 0.00 in Snow Light Snow
3:30 PM 26.6 °F 14.7 °F 21.2 °F 80% 29.75 in 1.0 mi South 15.0 mph 23.0 mph 0.00 in Snow Light Snow
3:53 PM 27.0 °F 15.6 °F 21.9 °F 81% 29.78 in 1.5 mi South 13.8 mph - 0.00 in Snow Light Snow
4:19 PM 28.4 °F 16.6 °F 21.2 °F 74% 29.74 in 2.0 mi South 16.1 mph - 0.00 in Snow Light Snow
4:26 PM 28.4 °F 17.0 °F 21.2 °F 74% 29.75 in 1.5 mi South 15.0 mph - 0.00 in Snow Light Snow
4:53 PM 28.0 °F 17.0 °F 21.9 °F 78% 29.78 in 1.5 mi South 13.8 mph - 0.00 in Snow Light Snow
5:01 PM 28.4 °F 15.4 °F 21.2 °F 74% 29.75 in 1.8 mi South 19.6 mph 24.2 mph 0.00 in Snow Light Snow
5:11 PM 28.4 °F 17.0 °F 21.2 °F 74% 29.75 in 2.5 mi South 15.0 mph - 0.00 in Snow Light Snow
5:22 PM 28.4 °F 16.6 °F 21.2 °F 74% 29.75 in 4.0 mi South 16.1 mph - 0.00 in Snow Light Snow
5:35 PM 28.4 °F 16.2 °F 21.2 °F 74% 29.75 in 2.5 mi South 17.3 mph 23.0 mph 0.00 in Snow Light Snow
5:44 PM 28.4 °F 17.5 °F 21.2 °F 74% 29.75 in 5.0 mi South 13.8 mph - 0.00 in Snow Light Snow
5:53 PM 28.0 °F 15.7 °F 21.0 °F 75% 29.78 in 9.0 mi South 17.3 mph 23.0 mph 0.00 in   Overcast
6:24 PM 28.4 °F 16.6 °F 21.2 °F 74% 29.75 in 2.5 mi South 16.1 mph - 0.00 in Snow Light Snow
6:53 PM 28.0 °F 17.5 °F 23.0 °F 81% 29.78 in 1.5 mi South 12.7 mph - 0.00 in Snow Light Snow
6:59 PM 28.4 °F 17.5 °F 23.0 °F 80% 29.75 in 2.5 mi South 13.8 mph - 0.00 in Snow Light Snow
7:04 PM 28.4 °F 16.2 °F 23.0 °F 80% 29.75 in 3.0 mi SSW 17.3 mph 21.9 mph 0.00 in Snow Light Snow
7:07 PM 28.4 °F 17.5 °F 23.0 °F 80% 29.75 in 1.8 mi South 13.8 mph 21.9 mph 0.00 in Snow Light Snow
7:28 PM 28.4 °F 18.5 °F 24.8 °F 86% 29.75 in 3.0 mi South 11.5 mph - 0.00 in Snow Light Snow
7:38 PM 28.4 °F 17.0 °F 23.0 °F 80% 29.75 in 1.8 mi South 15.0 mph 19.6 mph 0.00 in Snow Light Snow
7:53 PM 28.0 °F 18.6 °F 23.0 °F 81% 29.78 in 1.8 mi South 10.4 mph - 0.00 in Snow Light Snow
7:57 PM 28.4 °F 18.5 °F 23.0 °F 80% 29.74 in 3.0 mi South 11.5 mph - 0.00 in Snow Light Snow
8:10 PM 28.4 °F 17.5 °F 23.0 °F 80% 29.74 in 1.8 mi South 13.8 mph - 0.00 in Snow Light Snow
8:31 PM 28.4 °F 18.0 °F 24.8 °F 86% 29.74 in 1.2 mi South 12.7 mph - 0.00 in   Overcast
8:46 PM 28.4 °F 18.0 °F 24.8 °F 86% 29.74 in 1.8 mi South 12.7 mph 20.7 mph 0.00 in Snow Light Snow
8:53 PM 28.0 °F 17.0 °F 24.1 °F 85% 29.77 in 1.8 mi South 13.8 mph - 0.00 in Snow Light Snow
9:18 PM 28.4 °F 18.0 °F 24.8 °F 86% 29.74 in 2.5 mi South 12.7 mph - 0.00 in   Overcast
9:25 PM 28.4 °F 18.0 °F 24.8 °F 86% 29.74 in 6.0 mi South 12.7 mph - 0.00 in Snow Light Snow
9:44 PM 28.4 °F 17.0 °F 24.8 °F 86% 29.74 in 1.8 mi South 15.0 mph - 0.00 in Snow Light Snow
9:53 PM 28.9 °F 17.3 °F 24.1 °F 82% 29.76 in 1.8 mi South 16.1 mph 23.0 mph 0.00 in   Haze
10:00 PM 28.4 °F 18.0 °F 24.8 °F 86% 29.74 in 2.0 mi South 12.7 mph 23.0 mph N/A   Haze
10:15 PM 28.4 °F 18.0 °F 24.8 °F 86% 29.73 in 4.0 mi SSW 12.7 mph - 0.00 in Snow Light Snow
10:53 PM 30.0 °F 20.5 °F 24.1 °F 79% 29.76 in 10.0 mi SSW 11.5 mph - 0.00 in   Overcast
11:28 PM 30.2 °F 20.2 °F 23.0 °F 75% 29.72 in 10.0 mi SSW 12.7 mph - N/A   Overcast
11:53 PM 30.9 °F 21.2 °F 24.1 °F 76% 29.74 in 10.0 mi SSW 12.7 mph 19.6 mph N/A   Overcast